Weather in Varandey

Russia / Nenets Autonomous Okrug     68°49′25″N   58°04′01″E
temp.,
°C
wind,
m/s
gust,
m/s
humid.,
%
clouds,
%
prec.,
mm/h
press.,
hPa
HPBL,
m
1 march, mon
mon100:00−18ssw599557 0.0 1006179
03:00−15ssw6119477 0.1 1004271
06:00−12ssw81490100 0.2 1000285
09:00−11s101691100 0.3 996405
12:00−10s91690100 0.3 992545
15:00−9s91592100 0.9 988626
18:00−9s91592100 1.1 984592
21:00−8sse71393100 1.9 983526
2 march, tue
tue200:00−7s1296100 0.5 98264
03:00−7w2397100 0.5 98231
06:00−5wsw239896 0.4 98389
09:00−3sw369799 1.4 984247
12:00−3sw359799 0.8 985232
15:00−4sw479699 1.0 987176
18:00−6sw3596100 0.2 988101
21:00−8ssw129699 0.5 98957
3 march, wed
wed300:00−10ene129699 0.3 98936
03:00−10ne239699 0.6 99060
06:00−12ne1296100 0.4 99037
09:00−10se119699 0.7 99158
12:00−10ese2395100 0.4 991161
15:00−12e4695100 0.5 992208
18:00−14ene4795100 0.2 993206
21:00−15ene4895100 0.4 993260
4 march, thu
thu400:00−18ene479794 0.1 994171
03:00−17ne6109497 0.1 994310
06:00−18ne61095100 0.1 994298
09:00−18ne61094100 0.1 995396
12:00−17ne6993100 0.1 995513
15:00−16ne5995100 0.1 996420
18:00−17ne599598 0.1 996385
21:00−17ne599598 0.2 996382
5 march, fri
fri500:00−17nne51095100 0.1 996396
03:00−17nne51095100 0.3 996390
06:00−18nne5996100 0.2 996404
09:00−17nne6995100 0.4 996462
12:00−17nne5894100 0.3 998508
15:00−17nne5895100 0.4 999436
18:00−17nne5896100 0.2 999293
21:00−18nne5996100 0.3 1000325